sat.trackr.live / text

‹ back to catalog

STARLINK-36275

NORAD 68702 · 2026-081D

PAYLOAD ACTIVE UNKNOWN

§ Identity

Operator
Country
US
Launch date
2026-04-14
Launch site
AFETR
Launch vehicle
Mass (kg)
RCS (m²)

Purposes: comms

External: N2YO · Heavens-Above · Gunter

§ Orbital elements

Epoch: 2026-09-19T10:49:56.161344Z

Period
93.85 min
Inclination
53.1586°
Eccentricity
0.0002337
Mean motion
15.34400205 rev/d
Perigee alt
461.1 km
Apogee alt
464.3 km
Semi-major
6,840.8 km
B*
4.7998e-4
RAAN
210.9097°
Arg perigee
48.7841°
Mean anomaly
311.3363°
Rev number
2,445

§ Raw data

STARLINK-362751 68702U 26081D   26262.45134446  .00015875  00000+0  47998-3 0  99942 68702  53.1586 210.9097 0002337  48.7841 311.3363 15.34400205 24457

JSON: /api/v1/satellites/68702 · /tle

For live sub-satellite position, see the globe view (requires WebGL).

§ Visibility from observer

Set your observer location to see the next 7 days of passes ≥ 10°. The values pass through the URL so the page stays shareable.

No JS? Fill the form by hand. The geolocation button needs JavaScript.